Theta_e
313 315 316 316 317 318 318 317 317 317 317 317 316 315 315 314 315 316 317 317 317 316 314 314 314 314 314 313 314 314 314 314 314 314 314 315 316 316 317 316 315 314 315 315 314 313 312 312 311 310 309 309 309 308 308 308 309 310 311 312 314 314 313 314 315 317 318 319 319 320 320 320 319 319 319 319 319 319 318 317 316 316 315 315 315 316
313 316 317 317 317 317 318 317 317 316 316 316 316 315 315 315 315 316 317 317 316 315 314 314 313 313 313 313 313 314 314 314 314 315 315 316 317 317 316 315 314 314 315 314 313 312 311 310 309 308 308 307 307 306 306 307 307 308 309 310 312 313 312 312 313 315 316 317 317 318 318 318 318 318 318 317 317 317 316 315 315 314 314 314 314 314
315 317 317 317 317 317 317 316 315 315 315 315 315 315 315 316 316 317 317 316 314 313 313 314 313 313 313 314 315 315 315 315 316 316 317 317 317 316 315 314 315 314 314 313 311 311 309 308 307 306 306 305 305 304 304 305 306 306 308 309 310 311 311 311 311 312 314 315 315 316 317 317 317 317 316 316 316 315 314 313 313 312 312 313 312 312
318 318 317 317 316 316 316 315 315 314 314 315 315 315 316 317 317 316 316 315 313 313 314 314 313 314 315 315 316 316 316 315 316 317 317 317 315 315 315 314 314 313 313 311 310 309 308 307 306 305 304 304 303 303 304 304 304 305 306 307 308 310 310 310 310 310 311 312 313 314 314 314 314 314 313 313 313 312 312 312 311 311 311 311 311 311
319 318 315 315 315 315 316 315 315 315 315 316 316 316 316 317 317 316 315 314 314 314 314 314 314 315 317 317 316 316 316 316 317 317 315 315 314 315 314 314 313 312 311 310 308 307 306 306 305 304 303 303 302 302 302 303 303 304 304 305 307 308 309 309 309 309 309 310 311 312 311 311 311 311 310 310 310 310 310 310 310 310 310 310 310 310
318 316 314 315 315 315 315 315 315 316 316 317 317 317 316 317 317 315 315 315 315 315 314 314 316 317 316 317 318 317 317 317 318 317 314 314 314 314 313 312 311 311 309 308 307 306 305 305 304 303 302 302 301 301 301 302 302 303 304 304 305 306 307 307 307 308 308 308 309 309 309 309 309 309 309 309 309 309 309 308 308 308 308 308 308 309
316 314 314 316 316 316 316 315 316 316 316 317 318 318 317 316 316 316 316 315 315 315 314 314 316 318 317 317 319 319 318 318 318 315 313 314 313 312 311 310 310 309 308 307 305 304 304 303 303 302 301 300 300 300 300 301 301 302 302 303 304 305 305 305 305 306 307 307 307 308 308 308 309 309 309 309 308 308 308 308 307 307 306 306 307 307
315 314 313 315 315 316 317 316 317 316 316 318 317 316 316 315 315 316 315 314 314 315 315 315 315 317 318 318 319 318 318 319 316 313 313 313 312 310 310 309 308 307 306 305 304 303 302 302 302 301 300 300 299 299 299 300 300 301 301 301 302 303 303 303 304 305 305 306 306 307 307 307 307 307 308 308 307 306 306 306 306 306 305 304 305 305
315 315 315 315 315 316 316 317 318 317 317 317 314 313 314 313 313 314 314 314 314 315 317 317 316 319 319 319 319 318 317 317 314 312 313 312 311 310 309 308 307 306 305 304 303 302 301 301 300 300 299 299 298 298 299 299 299 299 299 299 299 300 301 301 302 303 304 304 305 305 306 306 306 306 306 306 306 305 304 304 304 304 304 303 303 303
314 313 314 315 316 316 315 315 317 317 316 315 313 313 313 313 314 314 313 313 314 316 319 318 317 319 321 318 318 317 316 315 312 312 312 311 310 309 308 307 306 305 304 302 302 301 301 300 299 299 298 298 298 298 298 298 298 299 298 298 298 298 299 299 300 301 302 303 304 304 305 305 305 306 306 305 305 305 304 303 303 303 303 302 302 302
312 308 309 313 315 315 313 311 312 315 314 312 313 313 314 315 314 313 313 313 316 319 320 319 317 319 321 319 317 316 315 313 312 311 311 311 309 308 307 306 304 303 302 302 301 300 300 300 299 298 298 297 297 297 297 298 298 298 298 297 297 297 297 297 298 299 300 301 302 303 303 304 304 304 305 305 305 305 304 304 303 303 302 302 301 301
313 310 310 312 313 312 313 312 311 311 311 312 313 313 315 317 316 315 315 314 319 323 319 316 317 318 320 319 316 315 314 312 313 312 311 310 308 307 306 304 303 302 301 301 300 299 299 298 298 298 298 297 296 296 297 297 297 297 297 297 296 296 296 296 296 297 298 299 300 300 301 302 302 302 303 303 304 304 304 304 303 303 302 301 301 300
316 316 314 313 312 311 313 314 312 311 310 311 312 313 317 319 318 318 319 318 321 322 315 313 316 318 319 318 316 317 315 312 312 312 311 310 308 306 305 303 302 301 300 300 299 298 298 297 298 297 297 297 296 296 296 296 296 296 296 296 296 296 295 295 295 295 296 297 297 298 298 299 300 301 301 302 302 302 303 303 303 302 302 302 301 300
317 318 316 315 313 311 312 314 316 315 312 312 313 315 317 318 318 319 320 319 320 319 314 313 316 318 318 317 318 319 315 311 311 311 310 309 307 305 304 303 301 300 300 299 298 298 297 297 297 297 296 296 295 295 295 295 295 296 296 295 296 296 295 295 295 294 295 295 296 296 296 297 298 298 299 300 300 301 301 301 302 302 301 301 301 301
316 317 316 317 316 313 312 315 318 318 314 313 314 316 317 317 318 319 319 319 320 320 317 315 319 320 319 317 317 316 313 310 310 309 308 307 305 304 303 302 301 299 299 298 298 297 297 297 296 296 296 295 295 295 294 294 294 295 295 295 295 295 295 295 295 295 294 294 294 294 295 295 296 297 297 298 298 299 299 300 300 300 300 300 301 301
316 316 317 317 314 313 314 316 317 317 316 315 313 314 316 317 318 319 320 320 319 321 319 317 319 318 317 317 316 315 312 309 309 308 306 305 304 303 302 301 300 299 298 298 297 296 296 296 295 295 295 295 294 294 294 294 294 294 294 294 294 294 294 294 294 294 294 294 294 293 293 294 294 295 296 296 297 297 297 298 298 299 299 299 299 300
314 315 319 316 312 312 314 315 315 316 316 314 312 315 315 316 317 318 319 319 319 319 319 318 319 318 317 318 317 315 313 309 308 307 305 304 303 302 301 300 299 298 297 297 296 296 295 295 295 294 294 294 294 294 294 293 293 293 293 293 293 293 293 293 293 293 293 294 294 294 293 293 293 293 294 294 295 295 296 296 297 297 297 298 298 298
315 316 319 318 316 313 309 310 312 313 313 313 313 315 314 315 315 315 317 318 318 319 319 318 318 317 317 317 314 313 311 309 308 306 305 303 302 301 299 298 297 297 296 296 295 295 295 295 294 294 294 293 293 293 293 292 293 293 293 293 293 293 293 292 292 292 292 292 292 293 293 293 293 293 293 293 293 294 294 295 295 296 296 296 296 297
317 318 318 318 319 314 308 310 313 312 312 312 312 312 314 316 316 314 317 318 318 319 318 318 318 317 317 316 314 313 312 309 307 305 304 303 301 300 298 297 296 296 296 295 295 294 294 294 294 293 293 292 292 292 292 292 291 291 292 292 292 292 292 292 292 292 292 291 291 291 291 291 292 293 293 293 293 293 293 293 293 294 294 295 295 295
316 317 318 318 317 314 310 312 315 314 312 310 309 311 312 315 315 315 316 317 318 318 318 318 318 317 316 316 315 315 312 309 307 305 303 301 300 299 298 297 296 296 295 295 294 294 294 293 293 292 292 292 292 292 292 291 291 291 291 291 291 291 291 291 291 291 291 291 290 289 289 289 290 290 291 292 292 292 292 292 292 292 293 293 293 294
314 315 317 317 315 315 313 314 315 315 314 311 311 312 313 313 313 314 315 316 317 317 318 319 318 316 314 315 314 313 311 310 308 305 302 299 298 297 297 296 295 295 295 294 294 293 293 293 293 292 292 292 292 292 292 292 291 291 290 290 290 290 290 290 290 290 290 290 290 290 289 288 288 288 289 290 290 291 291 291 292 292 292 292 292 293
314 315 316 316 315 315 315 315 315 315 314 314 313 313 313 314 315 315 316 316 316 317 318 318 318 317 313 312 312 310 308 307 305 302 300 298 297 297 296 295 295 294 294 293 293 293 293 293 292 292 292 292 292 291 291 291 291 290 290 290 290 290 289 289 288 288 289 289 290 290 289 289 288 288 288 288 288 289 289 290 291 291 291 291 291 291
312 314 315 315 315 314 314 314 314 315 314 314 315 314 314 315 316 316 317 317 316 316 317 317 318 318 313 307 307 307 304 303 303 301 300 298 297 296 295 294 294 293 293 293 292 293 293 293 292 292 292 292 292 291 291 291 290 290 289 289 289 289 289 288 288 288 288 288 288 288 288 288 288 288 287 287 287 287 287 288 288 289 290 291 291 291
311 313 314 315 315 313 313 313 314 315 314 315 315 314 314 314 314 315 315 315 315 315 316 317 318 320 313 305 303 303 302 301 301 301 300 299 297 296 295 295 294 293 293 292 292 293 293 292 292 292 292 292 292 292 291 291 290 290 289 288 289 288 288 288 288 288 288 288 288 288 287 287 287 287 287 286 286 287 287 287 287 287 288 289 290 290
312 313 314 314 314 313 312 312 313 315 314 314 313 312 313 313 313 313 313 313 315 315 315 316 317 318 312 305 302 302 301 302 301 300 300 299 297 296 295 294 294 293 293 293 292 292 292 292 292 292 292 292 292 292 291 291 290 290 289 289 288 288 288 288 288 288 288 288 288 288 288 287 287 286 286 286 286 286 286 286 286 286 286 287 288 289
311 313 313 313 313 313 313 312 313 314 313 312 312 311 312 312 313 313 312 313 314 314 314 314 315 314 311 307 305 303 302 302 301 299 299 298 297 296 295 294 294 293 293 293 292 292 292 292 292 292 292 292 291 291 291 291 290 290 289 289 288 288 288 288 288 288 288 288 288 288 288 287 287 287 287 286 285 285 285 285 285 285 285 285 286 287
310 312 313 313 313 312 312 312 312 312 311 310 311 311 311 311 312 311 311 311 312 311 311 312 312 312 311 309 308 307 306 306 304 300 298 297 296 295 295 294 293 293 292 292 292 292 292 292 292 292 291 291 291 291 291 291 290 290 289 289 288 288 287 288 288 288 288 288 288 288 288 287 287 287 286 286 285 285 285 285 284 285 285 284 285 285
309 310 310 311 311 311 310 310 310 309 309 309 309 309 309 310 310 310 310 310 310 310 310 309 309 310 309 307 307 308 307 308 306 301 298 297 295 295 294 294 293 292 292 292 292 292 292 292 292 292 291 291 291 291 291 291 290 290 289 289 288 288 287 287 287 287 287 287 287 287 287 287 287 287 286 285 285 285 284 284 284 284 284 284 284 285
307 307 307 307 307 307 306 306 307 307 307 307 307 307 307 307 308 308 308 307 307 308 308 307 307 307 306 305 305 306 305 304 302 299 298 297 296 295 295 294 294 293 293 292 292 292 292 292 292 292 291 291 291 290 290 290 290 290 289 289 289 288 287 287 287 287 287 287 286 287 287 286 287 287 286 285 285 285 284 284 284 284 284 284 284 284
305 304 305 305 305 306 305 305 305 305 305 305 304 305 305 305 305 305 305 305 305 305 305 304 305 304 304 304 303 303 302 300 298 297 296 296 295 295 295 294 294 294 293 292 292 292 292 292 292 292 291 291 290 290 290 290 290 290 289 289 288 288 287 286 286 286 286 286 286 286 286 286 286 286 286 285 285 284 283 283 283 284 284 284 284 284
304 305 305 304 304 305 305 304 304 304 304 304 303 303 303 303 303 303 303 303 303 303 303 303 303 303 303 302 301 299 298 297 296 296 295 294 294 294 294 293 294 294 294 293 293 292 292 291 292 292 291 291 291 290 290 290 290 290 289 289 288 288 287 286 286 286 286 286 286 285 285 285 285 285 285 284 284 284 283 282 283 284 284 284 284 284
303 304 304 303 304 304 304 303 303 302 302 302 302 302 302 302 302 302 302 302 302 302 302 302 303 302 301 300 299 297 296 295 294 294 294 293 293 292 292 292 292 292 293 294 293 293 292 291 291 291 291 291 290 290 290 290 290 290 289 289 288 288 287 286 285 285 285 285 285 285 284 285 285 284 284 284 283 283 282 282 282 284 285 285 285 284
302 302 302 302 303 303 303 302 300 300 300 300 300 300 300 300 300 300 300 300 301 301 301 301 301 300 299 299 299 296 293 292 293 292 292 292 291 291 291 291 292 292 292 293 293 293 292 291 291 291 291 290 290 290 290 290 290 290 289 289 288 288 287 286 285 285 285 285 284 284 284 284 284 283 283 283 282 282 281 281 281 282 284 285 285 285
301 301 300 301 301 301 301 300 299 299 299 299 299 299 299 299 298 298 298 298 298 299 299 299 299 298 298 298 297 294 291 291 291 291 291 291 291 291 291 291 291 291 291 292 293 293 293 292 291 291 291 291 291 290 290 290 290 290 289 289 288 287 286 286 285 285 285 284 284 283 283 283 283 283 283 282 282 281 281 280 280 281 283 284 284 284
299 299 299 299 299 299 299 299 298 298 298 297 297 297 297 297 296 296 297 296 296 297 298 297 298 299 297 295 293 292 291 291 291 291 291 291 291 292 292 291 291 291 291 291 292 293 293 293 292 291 291 291 291 290 290 290 290 289 289 288 288 287 286 286 285 285 284 284 283 283 283 282 282 282 282 282 281 281 280 280 280 280 281 283 284 283
298 298 297 297 297 297 297 297 298 298 296 295 295 296 296 296 296 296 296 297 296 296 297 297 298 298 295 292 291 291 291 291 291 291 292 292 292 293 292 291 290 290 290 291 291 292 293 292 292 291 291 291 291 291 290 290 290 289 289 288 287 287 286 285 285 284 284 283 283 283 282 282 282 282 282 281 281 280 280 279 279 279 280 282 282 281
297 297 297 297 297 296 296 297 298 298 297 296 296 296 296 296 296 296 297 297 296 297 297 297 297 295 292 291 290 290 292 292 291 291 292 292 292 293 292 291 290 290 290 290 291 291 291 291 291 291 291 291 291 290 290 289 288 287 287 286 286 285 285 284 284 284 283 283 282 282 282 282 281 281 281 281 280 279 279 278 278 278 279 280 280 280
296 296 297 297 297 296 295 296 297 296 296 296 295 295 296 295 295 296 296 296 297 298 297 296 295 292 290 290 290 290 292 292 291 291 292 292 291 291 291 291 290 290 290 290 290 290 290 290 290 290 290 289 289 288 287 286 285 284 284 283 283 283 283 283 283 283 283 282 282 282 281 281 281 281 281 280 279 279 278 278 277 277 278 279 279 278
294 295 296 296 296 296 295 296 295 295 296 295 295 295 295 294 294 295 294 294 296 296 295 293 291 290 290 290 290 290 290 290 290 291 291 291 291 291 290 290 290 290 290 290 290 289 289 289 288 288 288 287 287 286 284 283 282 281 281 281 281 281 282 282 282 282 281 281 281 281 280 280 280 280 280 279 279 278 277 277 276 276 277 278 277 277
293 294 295 295 295 296 295 295 295 294 294 295 294 294 294 294 294 294 293 293 293 293 293 292 291 290 290 290 290 290 290 290 290 291 290 290 290 290 290 290 290 290 290 289 288 287 287 286 286 285 285 284 284 283 282 282 281 280 280 280 280 280 280 280 280 280 280 280 279 279 278 278 278 278 278 278 277 276 276 276 275 275 276 276 276 275
292 293 294 295 295 295 295 295 294 294 294 294 294 294 294 294 294 293 293 292 290 291 292 292 291 290 290 290 290 290 290 290 290 290 290 290 290 290 290 290 290 289 289 288 286 285 284 283 283 282 282 282 281 281 280 280 279 279 278 278 278 278 278 278 278 278 278 278 277 276 276 276 276 276 276 276 275 275 274 274 274 275 275 274 274 273
291 291 292 293 294 294 294 294 293 293 294 295 294 294 294 294 293 293 293 291 290 291 291 291 291 290 290 290 289 290 290 290 290 290 289 289 289 289 290 289 289 288 287 286 284 283 282 281 281 280 280 280 279 278 278 277 277 277 276 276 276 276 276 275 275 275 275 275 274 274 273 273 273 274 274 274 274 273 273 273 273 273 273 273 272 272
291 291 291 292 292 293 293 293 293 293 293 294 293 292 293 293 293 293 292 292 292 292 291 291 291 290 290 290 290 290 290 289 289 289 289 289 289 289 289 288 287 286 285 284 282 281 280 279 279 278 278 277 276 276 275 275 274 274 274 274 274 273 273 273 272 272 272 272 271 271 271 271 271 271 271 272 272 272 272 272 272 272 272 271 271 271
291 291 291 291 292 292 291 292 293 292 292 293 292 291 292 293 293 292 292 292 292 292 291 291 290 290 290 290 289 289 289 289 289 289 289 289 288 288 287 286 285 283 283 282 281 279 278 277 276 275 275 275 274 274 273 273 272 272 272 272 271 271 270 269 269 269 269 268 268 268 268 268 268 268 269 269 270 270 270 270 270 270 270 270 270 270
292 292 291 291 291 291 291 291 292 292 292 292 292 292 292 292 293 293 292 292 292 291 291 290 290 290 290 289 289 289 288 288 288 288 288 288 287 286 285 284 283 282 281 280 278 277 275 274 274 273 273 273 272 272 271 271 270 270 269 269 269 268 267 266 265 265 265 265 265 265 265 266 266 266 267 267 267 268 268 269 269 269 269 269 270 270
292 292 292 291 291 291 291 291 291 291 291 291 292 292 292 292 292 292 292 292 291 291 291 290 290 289 289 288 288 288 288 288 287 287 286 286 285 284 283 282 281 280 279 277 276 275 273 272 272 271 271 271 270 269 269 268 268 267 267 267 266 265 264 264 263 263 263 263 263 263 264 264 264 264 265 265 266 266 267 267 268 268 268 268 269 269
291 291 291 291 291 291 291 291 291 291 291 291 291 292 292 292 291 291 291 291 291 291 290 289 288 287 287 286 286 286 286 286 285 285 284 283 282 281 281 280 279 278 276 275 274 272 271 270 270 270 269 268 268 267 267 266 266 265 265 264 264 263 263 262 262 262 262 262 262 262 262 262 263 263 263 264 264 265 265 266 266 267 267 267 268 268
291 291 291 291 291 290 290 290 290 291 291 291 291 291 291 291 291 291 291 291 290 288 287 286 285 285 285 285 285 284 284 284 283 282 282 281 280 279 279 278 277 275 274 273 272 270 269 269 268 268 267 266 266 265 265 264 264 264 263 263 263 262 262 261 261 261 261 261 261 261 262 262 262 262 263 263 263 264 264 265 265 265 266 266 266 267
291 291 291 290 290 291 290 290 290 290 290 291 291 291 291 291 291 291 291 289 288 286 285 284 283 283 283 283 282 281 281 281 280 279 279 278 277 277 277 275 274 273 272 271 270 269 268 267 266 266 265 265 264 264 264 263 263 263 263 262 262 261 261 261 261 261 261 261 261 261 261 262 262 262 262 262 263 263 263 263 263 264 264 264 265 265
292 291 291 291 290 290 290 290 290 290 290 290 291 291 291 290 290 290 289 288 287 285 283 282 282 281 281 280 279 278 278 278 278 277 276 276 275 275 274 273 272 271 270 269 268 267 266 265 265 264 264 263 263 263 263 263 262 262 262 261 261 261 261 261 261 261 261 261 261 261 261 261 262 262 262 262 262 262 262 263 263 263 264 264 265 265
292 291 291 291 290 291 291 291 291 291 290 290 291 291 290 288 288 289 288 287 285 282 281 281 281 280 279 278 277 276 276 276 275 274 273 273 273 273 271 270 270 269 268 267 266 266 265 264 263 263 263 263 263 262 262 262 262 261 261 261 261 261 260 260 260 260 260 260 260 260 261 261 261 261 261 262 262 262 262 262 263 263 264 264 265 265
Wind_Speed
4 6 6 7 9 11 12 13 15 16 16 17 15 13 14 14 13 14 15 14 14 14 11 12 16 17 17 16 16 17 16 16 18 17 16 17 15 10 3 2 3 4 4 6 10 13 15 17 17 16 16 17 17 17 15 12 9 5 4 5 5 6 8 9 10 11 12 13 13 13 14 16 16 18 21 19 17 21 24 21 21 25 29 31 34 37
3 7 8 10 13 14 14 12 12 14 14 15 13 12 13 12 12 15 16 15 12 9 9 12 16 17 17 18 20 19 16 15 15 15 17 17 10 2 3 3 3 2 5 7 10 14 16 18 19 17 18 20 21 21 20 18 14 9 5 4 4 4 6 8 9 10 11 12 12 12 12 13 13 14 16 16 17 22 22 17 18 22 25 28 31 34
5 9 12 14 14 14 14 11 11 13 14 13 10 11 10 9 12 14 12 8 4 3 9 14 16 15 17 21 20 17 13 11 12 15 15 9 3 3 2 2 3 6 8 9 11 14 16 18 19 18 19 20 20 20 21 21 18 13 9 6 3 3 4 6 7 9 9 9 10 10 9 9 9 10 10 12 13 16 15 14 17 20 21 25 28 31
6 6 8 12 12 12 13 11 11 12 10 10 8 9 9 10 12 10 7 5 3 7 12 14 14 12 15 16 11 10 9 8 12 13 5 4 4 4 5 6 8 9 9 11 12 13 15 17 19 20 20 19 19 20 21 22 19 16 13 10 7 3 2 2 4 6 6 6 7 8 8 8 7 8 7 8 10 11 12 13 17 20 22 24 26 29
12 7 1 4 8 10 12 11 11 10 8 9 9 9 11 12 13 12 11 11 11 11 9 10 11 8 5 4 4 5 6 7 10 3 7 8 5 7 10 11 11 12 11 11 12 12 13 15 18 20 20 21 21 23 23 21 20 17 14 12 10 7 4 3 2 3 4 4 4 5 7 8 8 9 8 8 10 11 14 16 17 20 23 25 27 29
12 6 3 4 6 7 9 10 12 10 7 9 9 10 13 13 13 14 14 11 10 6 1 6 8 4 1 1 5 5 6 12 8 7 11 8 8 10 11 12 12 11 11 12 12 12 13 14 17 20 22 23 24 24 22 20 19 17 14 13 11 10 9 8 6 3 3 4 4 4 6 7 7 9 9 9 11 10 12 14 15 17 20 23 25 27
6 1 3 4 7 7 8 9 12 10 7 7 4 4 8 10 11 12 11 8 6 5 2 3 5 6 4 7 12 8 9 14 3 10 9 9 11 10 11 11 10 10 11 11 12 13 14 15 17 20 23 24 22 22 21 18 17 16 15 15 14 13 12 11 10 7 4 4 5 5 6 7 7 8 8 8 9 9 9 9 11 12 14 19 22 23
4 4 2 3 6 6 6 8 9 8 8 5 3 5 5 7 9 8 6 6 6 8 9 5 6 8 7 7 7 6 12 9 6 11 9 12 12 12 12 12 11 12 11 10 11 13 14 16 18 19 22 22 21 21 20 18 17 16 16 18 18 16 16 14 13 10 7 6 6 6 6 7 8 8 9 8 6 6 7 6 8 10 11 14 18 19
3 6 5 6 6 6 8 7 2 6 8 2 4 3 4 4 7 6 5 7 7 8 8 5 7 7 8 5 2 7 10 2 10 10 10 12 12 13 12 11 12 11 10 10 11 12 13 15 18 18 19 21 22 21 20 19 18 15 16 21 22 19 18 17 15 12 10 8 8 7 8 8 8 8 9 8 7 5 5 6 7 9 9 11 15 18
0 2 2 5 6 6 6 3 2 4 5 1 2 2 2 4 6 5 6 6 6 7 9 6 9 6 8 5 3 5 6 3 9 8 10 11 11 11 10 10 11 9 9 10 9 11 12 13 14 15 17 19 19 19 18 17 16 14 17 24 26 23 20 19 17 14 12 10 8 7 8 9 10 10 10 9 8 7 5 6 7 8 9 10 12 15
3 3 3 4 8 5 1 3 3 1 0 1 2 5 5 7 6 5 5 4 5 8 7 5 11 8 6 3 1 1 1 7 8 6 9 12 11 10 8 9 9 8 8 7 8 10 11 13 13 14 15 17 18 17 16 14 13 16 22 26 27 26 23 21 20 17 14 12 10 9 8 9 9 10 10 10 10 9 8 8 7 8 9 9 10 12
6 4 2 4 6 4 1 2 1 2 1 2 4 5 6 5 4 4 4 3 5 6 3 4 4 7 7 3 2 2 5 6 4 6 9 11 11 9 8 8 8 8 7 7 8 9 10 11 12 13 15 15 15 14 13 13 15 21 26 26 26 28 26 24 22 20 17 14 12 11 10 9 9 9 9 10 10 11 10 10 9 8 8 9 10 11
5 7 8 5 3 5 5 3 2 3 3 3 4 4 5 5 4 5 5 4 6 4 3 4 1 5 9 7 7 6 4 7 5 7 11 11 11 10 8 7 6 7 7 7 9 9 8 7 9 12 12 11 10 11 13 17 20 22 25 25 26 27 26 24 23 22 19 16 15 13 12 11 10 10 10 10 10 10 10 10 9 9 9 9 9 10
4 3 7 6 2 6 8 5 3 3 5 6 5 4 4 5 6 7 6 6 7 3 3 1 1 5 8 7 11 14 4 10 9 9 11 12 12 11 9 8 7 7 7 8 8 7 5 5 8 10 9 9 10 13 17 20 21 21 22 23 24 24 25 25 24 23 21 18 17 15 13 12 11 10 10 10 10 10 9 9 9 10 10 11 11 10
7 5 5 7 2 8 11 9 5 1 4 7 3 3 5 5 6 6 6 7 9 7 3 2 2 4 5 3 2 5 7 11 9 11 11 11 11 10 9 8 7 7 7 7 6 4 4 7 9 8 8 11 13 16 18 19 20 19 19 21 22 22 22 23 23 24 24 21 19 18 15 13 11 11 11 10 11 11 11 10 10 10 10 12 13 12
7 7 3 3 1 7 10 8 3 1 3 3 1 2 4 3 4 4 4 5 6 8 7 5 4 6 6 5 5 3 10 13 10 12 11 10 10 8 8 8 6 6 6 5 4 4 6 9 9 9 11 12 13 15 16 17 17 17 18 20 21 20 20 22 23 24 24 23 24 22 19 16 14 12 11 11 11 12 12 12 12 11 11 11 12 13
6 7 3 5 1 4 3 2 1 1 3 2 2 3 2 1 1 3 5 3 2 7 8 6 7 8 8 9 9 6 8 12 10 11 10 9 9 8 7 6 5 5 4 4 4 5 8 9 10 11 12 12 12 13 14 14 15 15 16 18 18 18 19 20 22 24 25 24 26 25 23 21 18 15 13 13 13 13 12 12 12 12 12 11 11 11
6 9 3 4 6 3 3 3 1 2 2 2 2 2 0 1 1 3 6 5 6 10 7 7 12 11 9 7 1 7 9 9 9 9 9 8 8 7 6 5 4 4 3 4 5 6 7 9 11 11 12 12 12 12 13 14 14 14 14 14 13 14 15 16 18 21 23 24 24 24 24 24 21 19 17 15 14 13 13 12 12 12 13 13 12 12
2 8 7 3 4 1 3 1 4 2 1 1 2 2 1 3 3 4 6 5 8 11 7 9 13 11 9 9 6 5 9 10 9 9 8 7 7 6 6 4 4 3 2 3 4 5 6 8 10 11 11 12 12 13 14 15 16 16 14 13 12 12 13 15 15 16 17 19 19 20 21 21 21 21 20 18 16 14 13 13 13 12 13 13 13 13
2 5 6 2 3 1 2 2 5 5 2 1 2 3 2 2 4 6 6 5 8 11 9 10 10 9 8 8 11 7 8 12 9 8 7 6 6 5 4 4 2 2 2 3 3 4 4 5 7 7 8 10 11 12 13 15 17 17 16 17 17 16 16 16 15 15 14 14 16 18 20 20 20 19 18 16 15 14 13 13 12 12 13 13 13 13
1 3 5 2 1 2 4 5 6 8 5 3 4 5 4 3 3 4 4 5 7 9 9 9 8 8 5 4 5 5 8 8 7 8 6 5 6 4 3 3 2 2 2 2 2 2 2 2 3 4 6 7 8 10 11 13 14 15 16 17 17 18 18 18 17 16 15 13 13 15 18 19 21 21 20 17 15 14 14 14 14 14 14 13 13 13
1 2 5 6 6 7 9 8 7 9 9 7 7 7 8 7 4 6 8 6 6 7 8 9 10 7 1 5 6 8 7 6 7 8 7 6 5 4 3 2 1 1 1 1 1 1 1 2 3 4 5 6 8 9 10 10 10 11 12 13 13 14 15 16 17 17 16 15 14 13 14 16 17 18 18 18 18 18 18 17 16 16 16 15 15 14
1 1 5 8 9 11 14 15 11 8 8 8 8 8 9 8 6 7 9 5 4 6 6 8 12 6 3 6 6 7 7 7 7 7 7 6 4 4 3 2 1 0 1 1 1 1 2 3 3 4 4 5 5 6 6 6 7 7 8 9 10 11 12 13 14 14 14 14 14 14 14 15 15 15 16 17 18 20 21 21 20 19 17 15 15 15
1 2 5 7 7 9 14 14 9 4 5 7 5 4 4 6 6 6 6 5 4 5 6 8 10 3 4 6 7 8 7 7 5 5 6 4 3 3 2 1 0 1 1 2 2 2 2 3 3 3 3 3 3 3 4 4 4 4 5 7 7 8 10 11 11 12 11 11 11 12 13 15 16 16 17 19 19 19 20 21 22 21 19 17 17 16
1 3 4 5 6 6 8 10 5 1 1 1 2 4 5 6 8 7 5 5 4 5 8 9 7 1 2 3 4 4 3 3 3 3 4 3 3 3 2 1 1 2 2 3 3 2 3 2 2 2 2 3 3 3 3 3 3 4 4 5 5 6 7 8 9 9 10 10 10 11 12 13 14 16 17 19 20 20 20 21 22 22 20 19 18 17
3 4 4 6 8 8 8 7 4 1 2 2 3 6 8 8 9 8 6 7 7 6 7 8 6 4 3 2 3 4 5 5 5 5 4 4 4 4 3 3 2 2 2 3 2 2 2 2 2 2 2 2 2 3 3 4 4 4 4 4 4 5 6 7 8 8 9 9 9 10 11 12 13 14 15 17 19 20 21 21 22 23 21 20 19 18
3 4 6 8 9 10 10 9 8 8 8 9 9 9 9 9 9 7 7 9 8 6 7 9 10 10 10 11 9 5 5 6 5 6 5 4 4 4 4 3 3 2 3 2 2 3 3 3 3 3 3 3 3 4 4 4 4 5 5 5 5 5 6 6 7 7 8 8 8 8 9 10 12 13 14 16 17 19 20 21 22 22 22 22 21 20
3 6 9 10 11 13 14 15 15 14 13 13 14 14 14 12 11 9 12 12 9 8 8 9 12 13 12 14 14 11 12 10 4 7 6 5 6 5 4 4 4 4 4 3 4 4 4 4 5 5 6 7 7 7 7 7 7 7 7 8 8 8 9 9 9 9 9 8 8 9 9 10 11 12 14 16 16 16 18 20 22 22 22 23 22 21
4 9 12 13 13 15 16 17 16 14 14 13 15 16 17 17 17 15 16 15 12 11 12 12 18 20 15 17 20 17 12 5 4 7 5 5 5 5 5 5 6 6 6 6 6 5 5 5 5 5 7 7 8 9 9 10 10 10 10 11 11 12 12 13 14 13 12 12 11 11 12 13 13 13 14 16 17 17 19 20 21 21 22 23 21 21
4 8 9 8 10 12 14 16 15 13 13 14 16 18 19 21 23 21 19 19 19 20 20 21 25 25 21 20 17 8 4 5 6 5 4 5 4 5 5 6 7 7 7 7 6 6 6 6 5 6 7 7 8 9 9 9 10 10 11 12 12 13 14 16 18 17 15 15 15 15 16 16 15 15 16 17 17 18 21 22 22 21 22 22 21 22
4 6 4 3 6 10 12 13 14 14 15 16 17 20 22 24 25 22 20 19 19 20 21 23 24 21 15 8 3 5 6 4 3 3 3 2 2 3 4 5 6 7 8 8 8 7 6 6 7 8 8 9 10 9 9 9 9 10 11 11 11 11 13 16 17 16 16 16 17 18 18 17 16 17 19 20 19 20 22 23 22 22 23 23 22 22
4 5 4 4 7 8 9 13 14 13 14 15 18 21 23 22 20 18 16 15 15 17 19 19 17 11 3 4 5 5 5 4 3 2 1 1 2 3 5 6 7 8 9 9 9 8 7 8 8 8 9 10 11 11 11 11 11 11 11 11 11 11 13 16 16 15 16 17 19 21 20 19 19 20 21 21 22 23 24 24 22 22 23 23 23 24
4 5 5 6 7 6 8 11 9 7 9 12 13 16 18 18 18 17 16 17 18 17 15 12 8 2 1 1 1 4 5 5 4 4 3 3 5 6 6 7 9 9 9 9 9 9 8 8 9 10 11 11 11 12 12 12 12 13 13 13 12 12 15 17 17 17 18 20 22 23 22 21 23 24 24 23 24 25 26 25 25 24 23 22 23 23
6 7 7 7 7 8 10 7 3 5 11 10 4 5 10 13 13 13 15 16 16 14 9 5 3 1 1 1 2 5 5 6 6 6 5 5 5 6 7 8 9 10 10 10 10 10 9 9 11 12 12 13 13 14 13 13 14 15 15 14 13 13 14 16 17 18 19 20 22 24 23 23 24 27 28 28 29 29 29 28 27 26 24 23 23 23
8 9 8 7 8 9 9 7 7 10 9 3 2 1 5 6 6 11 15 16 16 16 12 8 7 5 1 4 5 5 7 7 7 8 8 8 6 5 6 7 8 10 10 10 10 10 10 11 12 12 13 14 14 15 14 14 15 15 14 13 13 13 14 15 17 18 18 19 21 22 23 23 24 25 27 29 30 31 32 32 30 30 27 23 23 25
10 9 8 7 8 9 8 9 11 8 3 3 6 7 6 6 8 11 13 11 10 10 9 8 7 2 4 6 6 6 6 6 7 7 9 9 7 5 6 7 8 9 10 10 11 12 13 15 15 15 16 16 14 13 13 13 13 12 11 11 12 14 16 17 18 19 19 20 22 22 22 23 25 25 26 27 28 30 31 32 32 33 29 25 26 28
11 9 7 7 8 8 9 10 11 10 9 10 10 8 5 4 4 5 7 7 4 4 5 5 2 4 6 6 7 6 5 5 6 7 7 6 5 4 5 6 8 9 10 12 14 15 18 19 18 17 17 15 13 11 10 9 8 9 10 13 15 17 19 20 20 19 20 22 23 23 24 24 25 25 26 27 28 29 30 31 33 32 29 27 28 30
9 10 8 8 7 7 9 10 10 11 10 7 4 4 4 4 5 6 7 7 2 2 4 0 4 5 6 6 6 5 4 5 6 6 5 5 7 8 7 7 9 11 12 14 16 17 17 16 18 20 19 16 14 12 11 11 12 12 13 15 17 20 22 22 21 21 22 23 23 24 25 25 26 27 28 29 29 30 31 32 32 33 30 28 28 30
6 7 7 8 8 7 9 10 9 10 6 1 1 2 5 4 5 6 8 8 1 1 1 3 3 5 6 5 6 6 4 5 6 6 6 8 10 10 9 9 10 13 15 16 15 14 14 15 17 19 18 15 14 13 14 15 17 16 15 16 17 20 21 22 22 22 23 23 23 24 25 26 28 29 29 30 30 30 32 33 33 33 31 27 27 29
3 4 6 8 8 9 10 9 8 8 5 0 1 2 3 3 4 5 9 7 1 3 2 1 2 6 5 6 6 5 5 6 6 7 9 11 12 12 11 11 12 14 15 13 13 14 14 15 16 16 16 15 16 16 17 17 17 17 17 17 18 19 20 21 21 22 22 22 22 25 27 28 29 31 31 31 32 32 33 32 32 32 30 28 28 29
3 3 6 8 9 10 11 10 7 7 7 5 6 5 1 3 1 6 8 2 3 4 4 4 5 7 7 7 6 5 6 7 8 9 10 12 12 12 13 13 13 13 11 11 12 13 13 13 13 15 15 15 16 17 18 19 19 19 18 18 19 20 20 21 22 22 21 22 24 28 30 30 31 32 33 33 34 34 34 33 31 31 31 31 32 32
3 3 5 8 9 9 9 10 9 7 5 5 4 2 3 3 4 6 2 2 4 5 4 6 8 8 8 8 7 6 7 9 10 11 11 11 12 11 12 12 10 9 10 10 11 12 11 12 14 15 14 15 16 17 18 19 20 20 19 19 19 20 21 21 22 22 23 25 29 32 34 34 33 33 33 34 33 33 34 34 33 33 33 32 32 34
4 4 5 7 8 7 8 9 9 7 3 4 4 2 4 6 6 5 3 2 4 5 5 6 7 7 8 8 8 8 9 10 11 11 11 12 12 11 10 8 7 8 10 10 10 11 11 13 14 15 15 15 16 16 16 19 21 19 18 20 20 21 22 24 26 27 28 31 34 36 37 37 36 35 35 35 34 33 34 35 34 33 32 32 32 33
6 6 7 6 5 6 8 7 6 6 4 4 6 4 5 6 6 6 6 7 7 6 6 6 7 8 8 8 8 9 10 10 11 12 11 11 9 8 7 7 7 8 9 9 9 11 12 13 15 17 17 15 15 16 16 18 20 19 19 22 24 25 26 29 31 32 32 34 36 37 38 37 36 36 36 36 35 35 35 36 35 33 33 33 32 30
7 8 8 8 7 8 9 9 7 7 5 4 7 6 8 9 9 9 8 8 7 6 6 6 8 9 7 7 8 8 9 10 11 10 9 8 7 6 6 7 8 8 8 9 10 12 13 14 16 18 19 17 15 17 17 17 20 21 22 23 25 27 30 31 32 32 33 35 35 36 36 36 36 36 36 35 35 35 36 36 36 34 32 31 31 30
8 10 9 8 9 10 12 12 11 11 11 9 9 9 9 11 12 11 9 8 8 8 8 7 7 7 6 5 6 7 8 8 8 8 6 6 6 6 6 7 8 8 8 9 10 12 14 16 16 17 20 20 18 18 19 18 18 20 22 24 25 27 29 31 31 31 33 34 33 33 34 35 35 35 33 33 33 32 33 33 33 32 31 29 28 29
10 13 11 8 10 10 10 11 12 13 14 14 13 12 12 14 13 11 10 10 9 7 5 3 3 4 4 4 5 7 7 6 6 6 5 5 6 6 6 7 7 8 9 9 11 12 14 15 16 17 20 21 19 18 19 19 18 21 24 26 27 29 31 31 30 30 32 32 31 32 32 31 31 31 30 30 29 28 28 29 28 29 29 28 26 26
8 10 10 10 12 11 11 14 15 14 15 15 14 12 12 13 13 13 12 9 4 1 2 1 1 2 3 3 3 4 5 5 5 6 5 5 5 6 6 7 7 8 9 9 11 13 14 14 16 17 19 21 20 19 20 22 24 26 26 27 28 30 33 32 29 29 31 32 30 29 28 28 28 29 29 28 27 27 27 28 27 28 28 28 27 27
7 9 9 10 11 12 13 16 16 15 16 17 16 15 14 13 14 14 11 4 2 4 4 3 2 2 2 2 2 2 4 5 4 4 5 5 5 5 6 8 8 9 10 10 11 13 14 14 16 17 19 20 21 22 24 26 28 28 28 28 30 31 32 31 29 29 31 30 28 28 27 27 27 27 28 29 29 29 29 29 29 30 32 32 31 31
10 12 11 9 10 11 11 12 12 12 12 12 13 14 12 9 9 8 5 3 4 4 4 4 3 3 3 2 1 2 4 4 3 3 4 4 5 6 7 9 9 9 10 12 13 14 13 14 16 18 20 21 21 22 25 27 29 30 30 30 30 30 30 30 29 30 29 28 27 27 27 27 27 27 28 29 29 30 31 30 30 32 34 35 34 35
11 13 12 10 11 11 12 12 12 10 11 12 14 11 4 2 3 5 5 4 4 4 4 3 4 4 4 3 2 1 2 3 3 4 4 4 5 7 8 8 9 10 12 14 14 14 14 15 17 19 20 21 21 23 26 30 32 32 32 31 29 29 29 29 29 29 28 27 27 28 28 28 29 29 29 29 29 29 30 30 30 30 33 35 36 37
Wind_Direction
191 215 205 221 236 246 248 244 252 262 274 284 287 282 280 281 280 282 283 285 292 290 282 284 288 293 297 297 289 280 278 278 275 274 273 271 271 278 297 47 41 15 17 48 54 45 38 30 24 20 16 17 21 19 20 23 15 353 305 271 256 241 220 212 211 207 206 208 211 215 218 223 223 226 231 229 228 232 232 227 223 227 227 224 222 220
193 227 227 232 243 255 265 273 278 278 279 280 281 280 277 279 281 282 284 289 299 296 284 288 290 292 296 291 281 279 279 276 273 268 262 266 280 333 70 51 5 39 83 72 54 44 37 31 26 23 20 20 20 16 16 20 16 8 355 304 269 248 221 213 213 209 211 214 214 218 221 224 225 225 229 227 227 232 232 225 225 229 229 227 225 223
216 233 236 237 246 258 265 276 281 276 275 274 272 275 276 281 285 285 287 292 318 308 291 297 298 294 287 277 277 279 269 256 260 261 262 277 332 45 29 15 85 96 83 60 46 40 34 30 27 25 25 24 22 17 16 17 16 15 12 358 321 273 235 225 221 217 220 222 220 223 227 226 226 228 227 223 225 229 227 224 228 231 231 230 228 226
241 247 237 240 249 258 262 263 266 267 264 259 261 271 275 281 284 288 297 306 307 286 290 301 297 287 276 264 263 266 242 233 257 264 285 29 53 54 51 68 85 82 66 53 45 36 31 28 25 23 23 23 23 21 19 16 15 13 11 9 358 342 296 261 237 230 233 232 222 218 225 224 220 225 224 219 223 225 224 228 232 234 235 233 231 230
258 273 144 230 244 253 263 264 259 261 262 258 256 261 267 275 282 291 304 310 304 288 290 309 300 286 277 221 187 216 219 253 264 226 88 79 84 85 80 72 66 63 55 49 44 36 33 29 25 24 22 22 22 20 17 14 13 9 10 16 14 15 15 357 318 258 245 237 224 211 225 229 225 232 232 225 226 225 229 232 234 237 238 236 235 233
264 272 121 206 237 243 256 260 256 256 270 269 256 256 266 280 289 296 307 314 308 291 34 3 321 295 96 217 271 273 262 272 268 114 103 103 100 93 84 71 61 58 51 45 43 39 36 31 29 28 24 23 22 17 12 10 12 8 10 26 33 37 36 21 10 335 278 254 248 240 244 246 242 244 240 235 235 229 230 232 231 234 236 236 237 235
262 240 121 226 241 242 243 254 256 251 262 269 274 292 286 292 297 300 310 313 300 292 317 1 306 284 283 272 275 277 264 264 261 91 98 105 97 84 73 67 55 49 49 45 40 37 33 29 28 27 25 23 19 14 11 11 13 9 14 32 41 45 44 32 21 8 341 312 289 273 269 270 270 269 265 261 253 242 239 234 227 226 229 234 235 232
209 196 150 212 228 235 233 251 251 229 245 268 15 1 320 305 301 304 309 292 283 295 289 245 229 266 284 281 266 234 250 256 99 93 104 105 95 82 74 70 60 49 48 46 39 37 33 28 27 26 25 22 17 13 11 13 16 13 19 37 44 45 43 35 28 25 10 347 331 314 299 287 282 283 285 289 281 256 246 237 227 223 223 230 233 228
163 195 193 186 203 225 228 249 230 195 237 286 52 353 327 308 294 298 292 283 286 297 290 214 194 259 283 294 253 209 245 252 97 102 107 99 87 86 83 80 75 62 53 50 46 42 37 33 29 27 26 24 20 12 8 15 17 13 23 40 46 44 40 35 32 31 23 6 351 335 323 312 302 297 293 292 291 276 254 238 229 226 225 227 231 229
165 176 226 200 209 239 236 272 28 200 237 36 71 286 277 255 259 266 265 280 288 275 277 232 193 242 294 298 248 223 243 131 110 107 103 93 77 79 83 81 81 74 60 52 49 48 43 38 33 31 33 29 23 12 7 14 14 15 29 39 43 42 38 35 33 33 29 19 6 349 338 329 320 314 309 302 295 290 275 255 242 234 233 229 227 228
240 83 12 241 233 256 94 65 28 360 319 48 276 280 276 250 237 244 246 263 274 262 286 254 196 217 293 316 288 287 128 132 134 135 124 109 92 83 77 76 74 70 65 55 53 51 42 39 35 32 33 30 24 14 8 10 12 25 36 38 40 39 37 35 33 32 31 26 17 3 349 336 327 320 313 308 303 299 291 279 267 253 245 237 230 228
227 190 223 224 230 245 152 131 97 83 98 243 264 286 294 268 223 232 224 201 259 267 352 34 181 224 254 261 348 31 115 137 143 145 136 114 103 98 82 73 67 63 63 53 51 46 35 33 31 30 31 30 23 12 6 12 20 32 36 37 38 37 35 33 32 32 30 27 21 9 357 344 332 324 315 308 305 303 299 292 284 274 261 250 240 233
232 216 209 194 195 213 212 217 179 164 186 218 242 254 283 288 261 262 252 234 263 266 82 59 30 251 253 261 274 262 150 120 108 122 130 119 109 105 90 78 67 62 59 51 48 42 30 24 27 30 29 28 23 12 14 23 28 34 35 35 38 35 31 32 33 33 31 27 22 13 2 353 340 330 321 310 304 302 300 298 294 288 278 269 257 243
280 227 182 182 195 195 199 213 226 211 190 195 213 223 248 280 281 278 275 268 271 271 108 132 289 274 264 262 252 244 173 107 104 105 115 118 114 110 100 88 73 64 58 53 53 44 29 30 37 35 26 24 23 19 23 27 29 34 34 35 37 35 32 34 35 35 34 29 24 18 9 0 349 338 327 316 312 309 305 302 299 297 291 287 280 267
280 291 177 180 163 162 188 224 256 5 173 197 211 235 248 263 265 273 279 275 281 297 294 224 235 273 274 352 287 226 114 103 107 99 99 103 103 104 97 85 72 64 59 56 59 50 40 45 42 36 29 28 26 24 28 29 30 33 34 35 38 35 32 33 35 37 38 34 29 24 16 8 358 345 335 325 320 317 313 308 302 298 295 293 292 288
268 281 159 128 86 163 188 226 241 59 209 197 103 250 256 254 238 264 283 279 294 300 282 242 240 264 272 313 295 211 109 101 106 102 100 97 94 95 86 77 67 60 54 52 55 41 39 43 40 35 33 31 28 27 29 29 30 32 33 36 38 36 35 36 38 39 40 39 37 33 25 17 9 357 347 337 330 325 318 311 304 297 289 288 290 291
266 277 111 95 284 197 195 265 169 255 264 145 147 226 251 331 257 272 275 256 252 274 272 257 262 270 274 279 261 211 114 100 109 107 102 100 96 89 80 76 69 59 48 41 38 32 35 35 33 35 33 31 29 29 31 30 30 32 34 36 36 34 36 40 42 42 42 42 41 38 34 29 21 9 358 346 335 330 324 316 308 302 295 289 285 283
269 280 247 199 248 234 46 356 277 296 309 157 199 249 6 317 254 254 263 257 248 259 263 258 266 276 278 281 205 130 123 118 120 112 106 106 101 91 87 85 80 73 51 40 38 33 32 29 27 29 27 26 26 27 30 30 30 34 36 37 36 33 33 33 37 40 41 42 40 38 37 36 33 26 18 8 353 340 331 324 316 311 307 300 295 288
282 282 272 243 272 284 80 305 245 223 195 204 292 335 314 273 262 243 253 261 259 263 265 254 260 270 265 264 269 216 164 141 127 121 117 112 108 104 104 102 92 87 65 51 48 37 33 29 25 22 17 17 18 20 24 27 32 35 35 35 36 35 33 32 34 37 39 41 41 40 39 38 39 38 34 26 15 3 348 336 326 319 314 308 304 298
15 281 280 51 46 51 121 216 235 222 161 95 297 274 231 268 278 261 258 261 262 265 268 259 254 258 261 275 290 273 159 143 139 132 120 107 106 106 110 114 102 92 76 58 55 45 38 32 22 14 8 8 11 13 17 24 28 28 28 32 32 31 32 31 31 33 33 33 35 37 38 37 39 40 37 30 22 14 4 355 348 339 329 318 310 304
16 269 276 297 16 259 229 221 243 258 253 222 235 239 224 228 264 274 254 238 253 263 264 265 258 252 269 330 360 58 107 129 132 124 116 103 102 97 94 98 78 75 69 52 55 44 29 27 15 9 6 6 11 14 16 19 20 18 21 26 26 28 30 30 29 29 27 22 20 22 24 27 31 33 33 31 28 22 14 7 3 358 352 340 327 317
254 242 266 273 269 262 262 266 275 278 277 270 259 255 257 258 258 261 252 229 232 253 254 261 262 251 318 17 47 77 82 86 104 116 117 109 109 105 94 83 66 71 61 49 48 8 360 2 357 2 6 8 14 17 18 19 17 15 16 17 18 21 23 25 27 27 25 22 17 12 11 15 18 20 21 24 26 25 23 20 15 8 2 354 344 335
20 249 258 266 264 268 280 288 286 270 264 266 264 266 273 274 264 260 268 272 266 272 273 265 261 252 65 35 40 60 65 73 87 101 108 114 122 119 119 119 98 39 5 352 325 333 346 343 344 345 349 356 5 9 11 16 17 15 14 13 14 16 15 19 22 21 20 20 19 17 15 14 13 11 12 14 17 18 19 21 21 18 14 4 354 347
87 242 249 258 264 275 284 284 281 270 258 250 251 293 307 287 285 285 283 289 282 279 283 270 262 267 51 36 38 51 61 71 75 89 106 123 131 125 137 130 60 301 301 301 298 309 311 317 326 322 323 331 336 344 345 350 355 357 4 10 10 10 12 17 18 14 10 7 9 11 13 14 14 13 13 13 13 10 10 12 14 15 15 10 5 1
262 259 268 284 285 284 279 269 257 90 33 270 271 310 309 289 290 298 288 276 252 233 246 258 263 279 48 52 70 78 92 118 134 136 140 156 157 160 176 176 251 268 281 290 294 304 304 302 304 308 316 315 316 327 323 319 325 324 332 347 350 348 351 356 358 357 355 353 352 357 1 3 6 9 10 12 11 8 7 7 6 8 9 6 4 3
275 268 274 279 276 272 271 271 277 356 360 310 276 276 281 278 280 290 292 278 267 249 248 262 277 289 289 250 184 179 187 183 177 175 175 173 170 172 180 196 229 247 268 287 298 303 298 287 292 309 315 306 306 314 308 304 308 313 315 318 324 328 327 332 338 338 338 339 337 342 348 351 354 358 359 2 6 6 5 3 2 3 4 3 2 359
268 262 252 250 255 264 269 279 299 307 295 288 288 282 278 272 269 274 268 261 274 294 277 265 273 283 287 285 273 236 228 239 209 184 179 171 167 174 185 198 212 227 247 268 282 290 300 305 309 322 329 328 328 323 317 315 311 314 319 317 321 328 328 331 332 329 330 333 329 329 335 339 343 347 349 351 355 357 358 358 357 357 357 358 360 357
257 267 260 255 256 262 269 276 284 287 282 282 285 283 278 275 269 259 254 262 285 295 276 272 282 282 282 288 289 285 283 283 227 172 179 178 175 182 191 204 222 235 243 248 260 274 290 300 308 320 326 330 333 331 332 332 328 327 328 328 332 335 336 337 334 329 327 326 325 324 325 327 328 332 339 343 345 346 348 350 350 350 350 351 353 351
269 272 271 272 271 269 273 277 278 279 281 283 281 279 279 277 271 262 261 270 279 273 272 286 288 283 282 283 284 287 295 310 117 140 160 162 171 187 198 215 231 236 236 240 248 253 260 271 284 296 304 311 315 319 324 326 327 330 329 330 334 334 336 338 336 334 331 328 328 325 324 324 323 323 327 332 335 337 340 342 342 342 342 343 343 343
265 266 270 284 284 277 273 273 274 278 280 277 274 273 273 270 267 267 272 275 272 270 273 277 277 276 278 281 284 300 11 68 98 120 138 150 173 196 214 234 244 243 243 246 248 250 255 262 269 273 280 288 291 297 306 309 312 316 318 320 322 325 329 331 332 332 329 327 328 327 326 323 321 320 322 324 326 327 331 335 335 333 333 333 333 334
268 266 280 319 293 272 265 267 270 272 272 273 271 268 265 265 266 269 273 274 271 270 269 267 268 271 276 288 338 64 79 83 89 102 122 149 180 217 251 267 268 262 258 255 254 258 259 260 265 268 268 272 277 281 285 286 289 293 296 300 304 309 315 321 324 324 321 321 322 323 325 322 319 319 319 319 319 319 323 329 328 325 324 324 323 325
273 273 288 292 274 261 258 268 274 278 278 273 265 260 257 260 265 265 264 263 263 266 266 265 269 275 300 46 70 85 78 64 54 36 18 348 326 305 294 294 295 288 279 270 263 258 256 256 259 261 262 266 270 270 269 268 270 272 276 281 286 291 299 307 311 311 311 313 315 317 319 318 316 315 315 314 314 314 317 322 322 320 317 314 314 316
256 266 280 275 270 265 263 273 288 305 286 268 255 249 247 253 259 258 258 259 257 261 268 272 276 276 90 54 95 91 67 38 5 349 343 329 322 316 308 301 299 297 293 285 274 263 257 255 253 255 259 261 261 261 260 260 259 259 262 267 270 274 285 294 297 298 301 303 306 309 311 311 311 311 309 308 308 310 313 315 316 317 312 307 306 306
242 251 263 265 266 271 273 281 301 262 261 265 261 236 247 262 269 265 266 268 266 269 276 278 270 234 195 167 90 69 36 358 342 333 318 309 309 306 302 300 299 299 297 289 279 269 260 253 252 253 253 252 254 255 254 253 253 255 259 261 260 261 270 279 285 290 293 295 298 300 301 303 305 305 304 305 306 308 310 310 311 313 310 303 300 300
246 247 254 257 260 267 274 275 258 248 249 261 67 201 247 262 267 265 268 269 272 275 276 281 284 273 269 65 56 29 357 337 324 313 302 296 289 278 282 291 298 305 307 302 295 287 276 265 259 256 257 259 259 256 252 250 251 255 259 261 263 266 270 275 281 285 287 289 292 293 295 297 297 296 296 299 301 303 305 306 307 309 308 301 295 295
246 249 254 256 254 261 262 250 250 257 273 274 264 263 259 247 245 258 267 271 274 276 277 285 288 274 77 48 20 355 337 320 306 293 283 282 278 259 263 291 311 316 318 319 318 314 308 296 282 271 272 272 269 266 265 266 268 271 276 280 282 283 283 283 283 284 286 289 290 289 290 291 292 290 288 290 294 296 297 298 300 302 303 298 292 293
239 244 254 255 249 253 255 249 256 276 282 270 267 276 284 279 278 289 292 293 304 313 297 273 210 97 52 12 349 337 314 296 297 287 278 291 308 292 277 300 321 321 319 322 323 320 316 312 308 304 303 302 303 306 309 310 316 320 313 306 302 296 294 292 287 284 287 290 291 291 289 289 289 287 284 284 287 287 289 291 293 294 295 291 288 290
239 242 245 251 253 253 261 263 262 269 271 264 279 335 24 27 17 3 316 297 308 345 325 45 117 61 14 340 325 325 304 292 299 296 300 331 341 330 309 304 314 319 322 322 321 320 322 329 332 330 329 331 334 342 351 348 346 342 323 310 305 300 298 295 289 288 291 291 290 290 290 288 288 286 282 281 282 283 286 287 287 289 290 285 281 284
236 245 238 246 256 251 256 262 255 260 269 206 211 11 63 62 21 359 308 290 230 121 5 74 66 360 340 313 310 314 299 288 288 295 321 332 329 323 313 306 312 318 319 322 330 339 345 348 343 335 336 340 341 347 349 339 333 330 319 309 304 301 299 297 294 296 297 293 290 291 292 291 290 287 283 281 281 283 285 285 285 286 285 278 275 280
196 226 220 229 243 241 244 252 250 262 286 356 245 322 76 87 25 331 289 286 127 149 177 138 312 313 308 295 300 293 276 281 288 301 319 319 313 311 309 308 311 315 322 340 359 0 354 351 346 340 339 340 336 338 340 334 328 327 322 314 308 304 301 300 300 302 299 294 292 293 294 293 291 288 285 284 285 286 286 284 283 283 281 275 274 278
180 212 222 228 238 238 242 251 254 260 270 271 274 281 143 109 314 272 272 282 141 198 218 212 249 276 278 277 283 273 269 281 289 295 301 303 304 306 306 307 311 321 344 12 14 360 351 346 341 333 328 331 332 333 335 332 326 323 320 315 309 306 306 306 306 305 301 297 295 295 295 294 291 289 287 286 287 287 285 282 280 279 278 276 276 278
201 206 227 236 243 242 243 254 263 264 251 233 243 231 167 180 251 262 271 120 183 233 250 233 242 259 265 267 269 268 275 283 285 288 292 297 301 302 303 313 329 347 1 4 358 355 350 338 331 327 326 332 334 332 332 330 323 318 315 312 309 310 313 313 310 307 302 297 295 295 295 294 292 291 289 287 286 285 283 281 280 278 278 276 276 277
242 242 243 240 242 247 251 250 252 268 263 155 147 165 193 215 251 279 306 270 250 276 285 263 263 271 269 269 271 276 284 287 286 290 294 295 299 302 312 337 2 358 347 342 344 350 345 333 327 325 325 331 332 331 332 330 323 318 315 312 312 315 316 313 311 307 300 297 297 296 297 296 294 292 290 288 287 285 282 282 280 278 276 275 275 275
244 246 252 251 242 248 259 251 244 277 296 166 175 230 249 247 268 290 293 287 285 291 288 281 288 290 285 283 282 282 288 289 289 294 296 296 303 313 329 350 354 340 337 339 342 346 344 335 325 320 321 327 331 331 332 330 323 317 314 313 314 315 314 312 311 308 302 300 301 300 300 299 297 295 293 290 289 286 282 281 280 276 273 270 269 269
221 223 236 249 256 258 266 271 274 292 292 190 189 235 260 265 275 280 280 278 275 279 287 290 291 293 294 290 281 280 283 285 289 294 298 303 315 324 329 333 333 332 337 341 341 341 338 330 323 318 318 323 330 329 327 327 322 314 311 313 314 314 313 313 313 309 305 304 304 303 303 302 299 297 295 292 290 287 283 282 281 277 272 268 264 262
230 240 244 251 264 266 265 267 269 274 270 249 239 247 253 261 271 275 272 269 269 276 286 288 288 293 297 286 272 270 276 283 289 295 302 309 313 316 319 320 325 334 340 343 341 337 333 327 322 318 315 318 326 328 323 322 319 311 309 313 314 313 313 313 311 307 304 304 303 303 304 302 299 298 297 294 291 287 283 282 281 277 274 271 267 263
240 247 248 247 254 258 259 259 257 259 262 262 260 261 261 263 267 268 268 272 277 281 279 273 281 289 285 270 261 264 272 282 288 290 298 304 303 307 314 316 324 335 338 338 334 331 331 327 319 317 315 314 319 324 320 318 316 312 311 312 312 313 313 311 306 301 301 302 301 301 301 299 296 296 297 295 293 288 285 283 281 278 276 275 273 272
240 242 243 242 244 246 255 262 260 259 261 262 262 263 265 265 265 267 270 271 269 194 146 143 212 252 253 258 259 264 273 278 282 286 292 298 300 306 312 317 325 330 329 330 329 328 328 322 314 313 312 311 314 319 317 315 316 316 315 313 313 314 311 308 303 298 298 299 298 297 297 295 293 294 294 293 292 289 287 285 282 279 276 275 276 277
254 252 247 245 248 252 257 260 262 263 264 260 256 256 259 262 266 270 272 259 149 135 144 150 170 204 230 261 265 263 271 272 278 290 293 295 299 305 312 319 323 323 322 324 323 321 319 315 311 310 307 306 310 312 312 313 314 316 315 313 314 313 309 305 302 299 298 298 296 295 295 294 292 292 292 291 290 286 283 281 280 279 277 276 275 274
252 252 248 246 253 257 253 246 247 256 262 263 265 266 265 262 261 260 249 194 163 165 167 167 177 184 184 204 228 256 268 272 286 300 295 293 300 308 315 319 318 318 320 319 315 313 311 309 307 305 302 303 306 309 310 311 313 314 315 315 315 314 309 305 303 300 299 298 297 295 296 295 293 292 290 289 289 287 285 283 280 278 279 279 278 276
240 244 245 246 249 251 251 249 251 258 266 274 281 279 261 187 211 224 219 196 168 150 150 178 205 207 192 179 161 200 267 283 307 315 304 295 301 309 314 318 319 318 315 312 310 310 310 309 305 301 300 304 307 309 311 311 311 313 316 315 313 312 309 305 303 300 299 298 296 295 296 295 293 291 289 288 287 288 289 288 285 282 280 281 282 281